McComb, MS

1:48 PM CDT on September 26, 2017 (GMT -0500)
McComb-Pike County-Lewis

Weather History for KMCB - January, 2012

Change the Weather History Date:

Tuesday, January 24, 2012

  Actual Average Record
Temperature  
Mean Temperature 57 °F -  
Max Temperature 66 °F 60 °F 80 °F (1972)
Min Temperature 48 °F 38 °F 7 °F (1963)
Degree Days  
Heating Degree Days 8    
Growing Degree Days 7 (Base 50)    
Moisture  
Dew Point 41 °F    
Average Humidity 56    
Maximum Humidity 72    
Minimum Humidity 37    
Precipitation  
Precipitation 0.00 in - - ()
Sea Level Pressure  
Sea Level Pressure 30.12 in    
Wind  
Wind Speed 5 mph (ENE)    
Max Wind Speed 9 mph    
Max Gust Speed -    
Visibility 10 miles    
Events Rain    
Averages and records for this station are not official NWS values.
T = Trace of Precipitation, MM = Missing Value Source: NWS Daily Summary

Daily Weather History Graph

Daily Weather History Graph

Search for Another Location

Airport or City:

Trip Planner

Search our weather history database for the weather conditions in past years. The results will help you decide how hot, cold, wet, or windy it might be!

Date:

Astronomy

Jan. 24, 2012 Rise Set
Actual Time 6:58 AM CST 5:29 PM CST
Civil Twilight 6:32 AM CST 5:55 PM CST
Nautical Twilight 6:03 AM CST 6:24 PM CST
Astronomical Twilight 5:34 AM CST 6:53 PM CST
Moon 7:36 AM CST (1/24) 7:10 PM CST (1/24)
Length of Visible Light 11h 22m
Length of Day
10h 31m
New Moon, 2% of the Moon is Illuminated
Jan 24
New Moon
Jan 30
First Quarter
Feb 7
Full
Feb 14
Last Quarter
Feb 21
New

Hourly Weather History & Observations

Time (CST) Temp. Dew Point Humidity Pressure Visibility Wind Dir Wind Speed Gust Speed Precip Events Conditions
12:53 AM 54.0 °F 34.0 °F 47% 30.08 in 10.0 mi NE 5.8 mph - N/A   Clear
1:53 AM 52.0 °F 34.0 °F 50% 30.09 in 10.0 mi NE 4.6 mph - N/A   Clear
2:53 AM 51.1 °F 35.1 °F 54% 30.09 in 10.0 mi NE 3.5 mph - N/A   Clear
3:53 AM 50.0 °F 35.1 °F 57% 30.09 in 10.0 mi NE 6.9 mph - N/A   Clear
4:53 AM 50.0 °F 35.1 °F 57% 30.10 in 10.0 mi NE 4.6 mph - N/A   Clear
5:53 AM 48.0 °F 36.0 °F 63% 30.13 in 10.0 mi Variable 4.6 mph - N/A   Clear
6:53 AM 48.0 °F 35.1 °F 61% 30.14 in 10.0 mi NE 5.8 mph - N/A   Clear
8:53 AM 52.0 °F 36.0 °F 54% 30.16 in 10.0 mi ENE 8.1 mph - N/A   Clear
9:53 AM 57.0 °F 35.1 °F 44% 30.18 in 10.0 mi ENE 9.2 mph - N/A   Clear
10:53 AM 62.1 °F 36.0 °F 38% 30.17 in 10.0 mi NE 4.6 mph - N/A   Clear
11:53 AM 64.0 °F 37.0 °F 37% 30.14 in 10.0 mi East 5.8 mph - N/A   Clear
12:53 PM 64.9 °F 37.9 °F 37% 30.12 in 10.0 mi Variable 5.8 mph - N/A   Scattered Clouds
1:53 PM 66.0 °F 39.0 °F 37% 30.11 in 10.0 mi East 3.5 mph - N/A   Mostly Cloudy
2:53 PM 64.9 °F 41.0 °F 42% 30.09 in 10.0 mi NE 3.5 mph - N/A   Overcast
3:53 PM 64.0 °F 41.0 °F 43% 30.10 in 10.0 mi Calm Calm - N/A   Overcast
4:53 PM 63.0 °F 43.0 °F 48% 30.12 in 10.0 mi Calm Calm - N/A   Overcast
5:53 PM 59.0 °F 50.0 °F 72% 30.14 in 10.0 mi Calm Calm - 0.00 in Rain Light Rain
6:53 PM 59.0 °F 46.0 °F 62% 30.11 in 10.0 mi ENE 3.5 mph - 0.00 in   Mostly Cloudy
7:02 PM 59.0 °F 46.4 °F 63% 30.12 in 10.0 mi East 4.6 mph - N/A   Scattered Clouds
7:21 PM 59.0 °F 46.4 °F 63% 30.12 in 10.0 mi East 4.6 mph - N/A   Mostly Cloudy
7:53 PM 59.0 °F 46.0 °F 62% 30.12 in 10.0 mi ENE 3.5 mph - N/A   Overcast
8:53 PM 60.1 °F 44.1 °F 55% 30.13 in 10.0 mi East 5.8 mph - N/A   Overcast
9:53 PM 59.0 °F 45.0 °F 60% 30.12 in 10.0 mi East 4.6 mph - 0.00 in   Mostly Cloudy
10:07 PM 59.0 °F 46.4 °F 63% 30.12 in 10.0 mi ENE 5.8 mph - N/A   Overcast
10:17 PM 59.0 °F 46.4 °F 63% 30.12 in 10.0 mi Variable 4.6 mph - N/A   Overcast
10:43 PM 57.2 °F 48.2 °F 72% 30.11 in 10.0 mi Variable 3.5 mph - 0.00 in   Overcast
10:51 PM 57.2 °F 48.2 °F 72% 30.11 in 10.0 mi ESE 3.5 mph - 0.00 in Rain Light Rain
10:53 PM 57.9 °F 48.9 °F 72% 30.11 in 10.0 mi Variable 4.6 mph - 0.00 in Rain Light Rain
11:53 PM 59.0 °F 48.0 °F 67% 30.09 in 10.0 mi East 4.6 mph - 0.00 in   Overcast